This is the latest recevied weather packets stored in our database for station/object KF7U. If no packets are shown the sender has not sent any weather packets the latest 10 day(s).
| Time | Temp. | Humidity | Pressure | Rain* | Wind** | Luminosity | Snow |
|---|---|---|---|---|---|---|---|
| 1778003854 | 19.44° C | 66% | 1010.8 hPa | 0 mm | - | 588 W/m² | - |
| 1778003555 | 19.44° C | 67% | 1010.8 hPa | 0 mm | - | 448 W/m² | - |
| 1778003255 | 19.44° C | 66% | 1010.8 hPa | 0 mm | - | 314 W/m² | - |
| 1778002955 | 20° C | 63% | 1010.8 hPa | 0 mm | - | 171 W/m² | - |
| 1778002655 | 20.56° C | 58% | 1010.8 hPa | 0 mm | - | 174 W/m² | - |
| 1778002354 | 21.11° C | 57% | 1010.8 hPa | 0 mm | - | 298 W/m² | - |
| 1778002055 | 21.11° C | 57% | 1010.5 hPa | 0 mm | - | 368 W/m² | - |
| 1778001756 | 21.11° C | 59% | 1010.8 hPa | 0 mm | - | 545 W/m² | - |
| 1778001455 | 20.56° C | 59% | 1010.5 hPa | 0 mm | - | 458 W/m² | - |
| 1778001155 | 20.56° C | 60% | 1010.8 hPa | 0 mm | - | 425 W/m² | - |
| 1778000855 | 20.56° C | 62% | 1010.8 hPa | 0 mm | - | 497 W/m² | - |
| 1778000554 | 20° C | 63% | 1010.8 hPa | 0 mm | - | 333 W/m² | - |
| 1778000254 | 20° C | 63% | 1010.8 hPa | 0 mm | - | 285 W/m² | - |
| 1777999955 | 20.56° C | 62% | 1010.8 hPa | 0 mm | - | 361 W/m² | - |
| 1777999655 | 20° C | 66% | 1010.8 hPa | 0 mm | - | 433 W/m² | - |
| 1777999356 | 19.44° C | 68% | 1010.8 hPa | 0 mm | - | 978 W/m² | - |
| 1777999055 | 18.89° C | 67% | 1010.8 hPa | 0 mm | - | 889 W/m² | - |
| 1777998755 | 18.89° C | 64% | 1010.8 hPa | 0 mm | - | 180 W/m² | - |
| 1777998156 | 20° C | 66% | 1010.5 hPa | 0 mm | - | 131 W/m² | - |
| 1777997855 | 20° C | 66% | 1010.8 hPa | 0 mm | - | 131 W/m² | - |
| 1777997555 | 20° C | 66% | 1010.8 hPa | 0 mm | - | 241 W/m² | - |
| 1777997254 | 19.44° C | 68% | 1010.8 hPa | 0 mm | - | 364 W/m² | - |
| 1777996956 | 19.44° C | 67% | 1010.8 hPa | 0 mm | - | 318 W/m² | - |
| 1777996655 | 19.44° C | 68% | 1010.5 hPa | 0 mm | - | 370 W/m² | - |
| 1777996355 | 19.44° C | 68% | 1010.5 hPa | 0 mm | - | 671 W/m² | - |
* Rain latest hour (hover to see other rain measurements)
** Current wind speed in m/s (hover to see current wind gust speed)